Time,TemperatureF,DewpointF,PressureIn,WindDirection,WindDirectionDegrees,WindSpeedMPH,WindSpeedGustMPH,Humidity,HourlyPrecipIn,Conditions,Clouds,dailyrainin,SoftwareType,DateUTC
2013-09-27 00:01:00,80.4,66.7,30.26,North,0,0.0,0.0,63,0.00,CLR,SCT,0.00,WeatherDisplay:10.37,2013-09-27 04:01:00,
2013-09-27 00:06:00,80.4,66.7,30.26,North,0,0.0,0.0,63,0.00,CLR,SCT,0.00,WeatherDisplay:10.37,2013-09-27 04:06:00,
2013-09-27 00:11:00,80.4,66.7,30.26,North,0,0.0,0.0,63,0.00,CLR,SCT,0.00,WeatherDisplay:10.37,2013-09-27 04:11:00,
2013-09-27 00:16:00,80.4,66.7,30.26,North,0,0.0,0.0,63,0.00,CLR,SCT,0.00,WeatherDisplay:10.37,2013-09-27 04:16:00,
2013-09-27 00:21:00,80.4,67.1,30.26,North,0,0.0,0.0,64,0.00,CLR,SCT,0.00,WeatherDisplay:10.37,2013-09-27 04:21:00,
2013-09-27 00:26:00,80.4,67.1,30.26,North,0,0.0,0.0,64,0.00,CLR,SCT,0.00,WeatherDisplay:10.37,2013-09-27 04:26:00,
2013-09-27 00:31:00,80.4,67.1,30.26,North,0,0.0,0.0,64,0.00,CLR,SCT,0.00,WeatherDisplay:10.37,2013-09-27 04:31:00,
2013-09-27 00:36:00,80.4,67.1,30.26,North,0,0.0,0.0,64,0.00,CLR,SCT,0.00,WeatherDisplay:10.37,2013-09-27 04:36:00,
2013-09-27 00:41:00,80.2,67.0,30.26,North,0,0.0,0.0,64,0.00,CLR,SCT,0.00,WeatherDisplay:10.37,2013-09-27 04:41:00,
2013-09-27 00:46:00,80.2,67.4,30.26,North,0,0.0,0.0,65,0.00,CLR,SCT,0.00,WeatherDisplay:10.37,2013-09-27 04:46:00,
2013-09-27 00:51:00,80.2,67.4,30.26,North,0,0.0,0.0,65,0.00,CLR,SCT,0.00,WeatherDisplay:10.37,2013-09-27 04:51:00,
2013-09-27 00:56:00,80.2,67.4,30.26,North,0,0.0,0.0,65,0.00,CLR,SCT,0.00,WeatherDisplay:10.37,2013-09-27 04:56:00,
2013-09-27 01:01:00,80.1,67.7,30.26,North,0,0.0,0.0,66,0.00,CLR,SCT,0.00,WeatherDisplay:10.37,2013-09-27 05:01:00,
2013-09-27 01:06:00,80.1,67.7,30.26,North,0,0.0,0.0,66,0.00,CLR,SCT,0.00,WeatherDisplay:10.37,2013-09-27 05:06:00,
2013-09-27 01:11:00,80.1,67.7,30.26,North,0,0.0,0.0,66,0.00,CLR,SCT,0.00,WeatherDisplay:10.37,2013-09-27 05:11:00,
2013-09-27 01:16:00,79.9,67.5,30.26,North,0,0.0,0.0,66,0.00,CLR,SCT,0.00,WeatherDisplay:10.37,2013-09-27 05:16:00,
2013-09-27 01:21:00,79.9,67.5,30.26,North,0,0.0,0.0,66,0.00,CLR,SCT,0.00,WeatherDisplay:10.37,2013-09-27 05:21:00,
2013-09-27 01:26:00,79.7,67.3,30.26,North,0,0.0,0.0,66,0.00,CLR,SCT,0.00,WeatherDisplay:10.37,2013-09-27 05:26:00,
2013-09-27 01:31:00,79.7,67.3,30.26,North,0,0.0,0.0,66,0.00,CLR,SCT,0.00,WeatherDisplay:10.37,2013-09-27 05:31:00,
2013-09-27 01:36:00,79.7,67.3,30.26,North,0,0.0,0.0,66,0.00,CLR,SCT,0.00,WeatherDisplay:10.37,2013-09-27 05:36:00,
2013-09-27 01:41:00,79.7,67.3,30.26,North,0,0.0,0.0,66,0.00,CLR,SCT,0.00,WeatherDisplay:10.37,2013-09-27 05:41:00,
2013-09-27 01:46:00,79.7,67.3,30.26,North,0,0.0,0.0,66,0.00,CLR,SCT,0.00,WeatherDisplay:10.37,2013-09-27 05:46:00,
2013-09-27 01:51:00,79.5,67.2,30.26,North,0,0.0,0.0,66,0.00,CLR,SCT,0.00,WeatherDisplay:10.37,2013-09-27 05:51:00,
2013-09-27 01:57:00,79.5,67.2,30.26,North,0,0.0,0.0,66,0.00,CLR,SCT,0.00,WeatherDisplay:10.37,2013-09-27 05:57:00,
2013-09-27 02:02:00,79.3,67.0,30.26,North,0,0.0,0.0,66,0.00,CLR,SCT,0.00,WeatherDisplay:10.37,2013-09-27 06:02:00,
2013-09-27 02:07:00,79.3,67.0,30.26,North,0,0.0,0.0,66,0.00,CLR,SCT,0.00,WeatherDisplay:10.37,2013-09-27 06:07:00,
2013-09-27 02:12:00,79.3,67.0,30.26,North,0,0.0,0.0,66,0.00,CLR,SCT,0.00,WeatherDisplay:10.37,2013-09-27 06:12:00,
2013-09-27 02:17:00,79.3,67.0,30.26,North,0,0.0,0.0,66,0.00,CLR,SCT,0.00,WeatherDisplay:10.37,2013-09-27 06:17:00,
2013-09-27 02:22:00,79.3,67.0,30.26,North,0,0.0,0.0,66,0.00,CLR,SCT,0.00,WeatherDisplay:10.37,2013-09-27 06:22:00,
2013-09-27 02:27:00,79.2,66.8,30.26,North,0,0.0,0.0,66,0.00,CLR,SCT,0.00,WeatherDisplay:10.37,2013-09-27 06:27:00,
2013-09-27 02:32:00,79.2,66.8,30.26,North,0,0.0,0.0,66,0.00,CLR,SCT,0.00,WeatherDisplay:10.37,2013-09-27 06:32:00,
2013-09-27 02:37:00,79.2,66.8,30.26,North,0,0.0,0.0,66,0.00,CLR,SCT,0.00,WeatherDisplay:10.37,2013-09-27 06:37:00,
2013-09-27 02:42:00,79.2,66.8,30.26,North,0,0.0,0.0,66,0.00,CLR,SCT,0.00,WeatherDisplay:10.37,2013-09-27 06:42:00,
2013-09-27 02:47:00,79.2,66.8,30.26,North,0,0.0,0.0,66,0.00,CLR,SCT,0.00,WeatherDisplay:10.37,2013-09-27 06:47:00,
2013-09-27 02:52:00,79.0,67.1,30.26,North,0,0.0,0.0,67,0.00,CLR,SCT,0.00,WeatherDisplay:10.37,2013-09-27 06:52:00,
2013-09-27 02:57:00,78.8,66.9,30.26,North,0,0.0,0.0,67,0.00,CLR,SCT,0.00,WeatherDisplay:10.37,2013-09-27 06:57:00,
2013-09-27 03:02:00,79.0,67.1,30.26,North,0,0.0,0.0,67,0.00,CLR,SCT,0.00,WeatherDisplay:10.37,2013-09-27 07:02:00,
2013-09-27 03:07:00,78.8,66.9,30.26,North,0,0.0,0.0,67,0.00,CLR,SCT,0.00,WeatherDisplay:10.37,2013-09-27 07:07:00,
2013-09-27 03:12:00,78.8,67.3,30.26,North,0,0.0,0.0,68,0.00,CLR,SCT,0.00,WeatherDisplay:10.37,2013-09-27 07:12:00,
2013-09-27 03:17:00,78.8,66.9,30.26,North,0,0.0,0.0,67,0.00,CLR,SCT,0.00,WeatherDisplay:10.37,2013-09-27 07:17:00,
2013-09-27 03:23:00,79.0,67.5,30.26,North,0,0.0,0.0,68,0.00,CLR,SCT,0.00,WeatherDisplay:10.37,2013-09-27 07:23:00,
2013-09-27 03:28:00,79.0,67.1,30.26,North,0,0.0,0.0,67,0.00,CLR,SCT,0.00,WeatherDisplay:10.37,2013-09-27 07:28:00,
2013-09-27 03:33:00,78.8,66.9,30.26,North,0,0.0,0.0,67,0.00,CLR,SCT,0.00,WeatherDisplay:10.37,2013-09-27 07:33:00,
2013-09-27 03:38:00,78.8,66.9,30.26,North,0,0.0,0.0,67,0.00,CLR,SCT,0.00,WeatherDisplay:10.37,2013-09-27 07:38:00,
2013-09-27 03:43:00,78.8,66.9,30.26,North,0,0.0,0.0,67,0.00,CLR,SCT,0.00,WeatherDisplay:10.37,2013-09-27 07:43:00,
2013-09-27 03:48:00,78.6,67.2,30.26,North,0,0.0,0.0,68,0.00,CLR,SCT,0.00,WeatherDisplay:10.37,2013-09-27 07:48:00,
2013-09-27 03:49:00,78.6,67.2,30.26,North,0,0.0,0.0,68,0.00,CLR,SCT,0.00,WeatherDisplay:10.37,2013-09-27 07:49:00,
2013-09-27 03:54:00,78.6,67.2,30.26,North,0,0.0,0.0,68,0.00,CLR,SCT,0.00,WeatherDisplay:10.37,2013-09-27 07:54:00,
2013-09-27 03:59:00,78.6,67.2,30.26,North,0,0.0,0.0,68,0.00,CLR,SCT,0.00,WeatherDisplay:10.37,2013-09-27 07:59:00,
2013-09-27 04:04:00,78.6,67.2,30.26,North,0,0.0,0.0,68,0.00,CLR,SCT,0.00,WeatherDisplay:10.37,2013-09-27 08:04:00,
2013-09-27 04:09:00,78.6,67.2,30.26,North,0,0.0,0.0,68,0.00,CLR,SCT,0.00,WeatherDisplay:10.37,2013-09-27 08:09:00,
2013-09-27 04:14:00,78.4,67.0,30.26,North,0,0.0,0.0,68,0.00,CLR,SCT,0.00,WeatherDisplay:10.37,2013-09-27 08:14:00,
2013-09-27 04:19:00,78.4,67.4,30.26,North,0,0.0,0.0,69,0.00,CLR,SCT,0.00,WeatherDisplay:10.37,2013-09-27 08:19:00,
2013-09-27 04:24:00,78.3,67.3,30.26,North,0,0.0,0.0,69,0.00,CLR,SCT,0.00,WeatherDisplay:10.37,2013-09-27 08:24:00,
2013-09-27 04:29:00,78.3,67.3,30.26,North,0,0.0,0.0,69,0.00,CLR,SCT,0.00,WeatherDisplay:10.37,2013-09-27 08:29:00,
2013-09-27 04:34:00,78.3,67.3,30.26,North,0,0.0,0.0,69,0.00,CLR,SCT,0.00,WeatherDisplay:10.37,2013-09-27 08:34:00,
2013-09-27 04:39:00,78.1,67.1,30.26,North,0,0.0,0.0,69,0.00,CLR,SCT,0.00,WeatherDisplay:10.37,2013-09-27 08:39:00,
2013-09-27 04:44:00,78.1,67.1,30.26,North,0,0.0,0.0,69,0.00,CLR,SCT,0.00,WeatherDisplay:10.37,2013-09-27 08:44:00,
2013-09-27 04:49:00,78.1,67.1,30.26,North,0,0.0,0.0,69,0.00,CLR,SCT,0.00,WeatherDisplay:10.37,2013-09-27 08:49:00,
2013-09-27 04:54:00,77.9,67.3,30.26,North,0,0.0,0.0,70,0.00,CLR,SCT,0.00,WeatherDisplay:10.37,2013-09-27 08:54:00,
2013-09-27 04:59:00,78.1,67.5,30.26,North,0,0.0,0.0,70,0.00,CLR,SCT,0.00,WeatherDisplay:10.37,2013-09-27 08:59:00,
2013-09-27 05:04:00,77.9,67.3,30.26,North,0,0.0,0.0,70,0.00,CLR,SCT,0.00,WeatherDisplay:10.37,2013-09-27 09:04:00,
2013-09-27 05:09:00,77.9,67.3,30.26,North,0,0.0,0.0,70,0.00,CLR,SCT,0.00,WeatherDisplay:10.37,2013-09-27 09:09:00,
2013-09-27 05:14:00,77.9,67.3,30.26,North,0,0.0,0.0,70,0.00,CLR,SCT,0.00,WeatherDisplay:10.37,2013-09-27 09:14:00,
2013-09-27 05:19:00,77.7,67.2,30.26,North,0,0.0,0.0,70,0.00,CLR,SCT,0.00,WeatherDisplay:10.37,2013-09-27 09:19:00,
2013-09-27 05:24:00,77.7,67.6,30.26,North,0,0.0,0.0,71,0.00,CLR,SCT,0.00,WeatherDisplay:10.37,2013-09-27 09:24:00,
2013-09-27 05:29:00,77.7,67.6,30.26,North,0,0.0,0.0,71,0.00,CLR,SCT,0.00,WeatherDisplay:10.37,2013-09-27 09:29:00,
2013-09-27 05:34:00,77.7,67.6,30.26,North,0,0.0,0.0,71,0.00,CLR,SCT,0.00,WeatherDisplay:10.37,2013-09-27 09:34:00,
2013-09-27 05:39:00,77.5,67.4,30.26,North,0,0.0,0.0,71,0.00,CLR,SCT,0.00,WeatherDisplay:10.37,2013-09-27 09:39:00,
2013-09-27 05:44:00,77.5,67.4,30.26,North,0,0.0,0.0,71,0.00,CLR,SCT,0.00,WeatherDisplay:10.37,2013-09-27 09:44:00,
2013-09-27 05:49:00,77.4,67.6,30.26,North,0,0.0,0.0,72,0.00,CLR,SCT,0.00,WeatherDisplay:10.37,2013-09-27 09:49:00,
2013-09-27 05:54:00,77.4,67.6,30.26,North,0,0.0,0.0,72,0.00,CLR,SCT,0.00,WeatherDisplay:10.37,2013-09-27 09:54:00,
2013-09-27 05:59:00,77.2,67.5,30.26,North,0,0.0,0.0,72,0.00,CLR,SCT,0.00,WeatherDisplay:10.37,2013-09-27 09:59:00,
2013-09-27 06:04:00,77.4,67.6,30.26,North,0,0.0,0.0,72,0.00,CLR,SCT,0.00,WeatherDisplay:10.37,2013-09-27 10:04:00,
2013-09-27 06:09:00,77.4,67.2,30.26,North,0,0.0,0.0,71,0.00,CLR,SCT,0.00,WeatherDisplay:10.37,2013-09-27 10:09:00,
2013-09-27 06:14:00,77.2,67.0,30.26,North,0,0.0,0.0,71,0.00,CLR,SCT,0.00,WeatherDisplay:10.37,2013-09-27 10:14:00,
2013-09-27 06:19:00,77.2,67.0,30.26,North,0,0.0,0.0,71,0.00,CLR,SCT,0.00,WeatherDisplay:10.37,2013-09-27 10:19:00,
2013-09-27 06:24:00,77.2,67.0,30.26,North,0,0.0,0.0,71,0.00,CLR,SCT,0.00,WeatherDisplay:10.37,2013-09-27 10:24:00,
2013-09-27 06:29:00,77.0,66.9,30.26,North,0,0.0,0.0,71,0.00,CLR,SCT,0.00,WeatherDisplay:10.37,2013-09-27 10:29:00,
2013-09-27 06:34:00,77.0,66.9,30.26,North,0,0.0,0.0,71,0.00,CLR,SCT,0.00,WeatherDisplay:10.37,2013-09-27 10:34:00,
2013-09-27 06:39:00,77.0,66.9,30.26,North,0,0.0,0.0,71,0.00,CLR,SCT,0.00,WeatherDisplay:10.37,2013-09-27 10:39:00,
2013-09-27 06:44:00,77.0,66.9,30.26,North,0,0.0,0.0,71,0.00,CLR,SCT,0.00,WeatherDisplay:10.37,2013-09-27 10:44:00,
2013-09-27 06:49:00,76.8,66.7,30.26,North,0,0.0,0.0,71,0.00,CLR,SCT,0.00,WeatherDisplay:10.37,2013-09-27 10:49:00,
2013-09-27 06:54:00,76.8,66.7,30.26,North,0,0.0,0.0,71,0.00,CLR,SCT,0.00,WeatherDisplay:10.37,2013-09-27 10:54:00,
2013-09-27 06:59:00,76.6,66.5,30.26,North,0,0.0,0.0,71,0.00,CLR,SCT,0.00,WeatherDisplay:10.37,2013-09-27 10:59:00,
2013-09-27 07:04:00,76.6,66.5,30.26,North,0,0.0,0.0,71,0.00,CLR,SCT,0.00,WeatherDisplay:10.37,2013-09-27 11:04:00,
2013-09-27 07:09:00,76.6,66.1,30.26,North,0,0.0,0.0,70,0.00,CLR,SCT,0.00,WeatherDisplay:10.37,2013-09-27 11:09:00,
2013-09-27 07:14:00,76.6,66.1,30.26,North,0,0.0,0.0,70,0.00,CLR,SCT,0.00,WeatherDisplay:10.37,2013-09-27 11:14:00,
2013-09-27 07:19:00,76.6,66.1,30.26,North,0,0.0,0.0,70,0.00,CLR,SCT,0.00,WeatherDisplay:10.37,2013-09-27 11:19:00,
2013-09-27 07:24:00,76.6,66.1,30.26,North,0,0.0,0.0,70,0.00,CLR,SCT,0.00,WeatherDisplay:10.37,2013-09-27 11:24:00,
2013-09-27 07:29:00,76.6,66.1,30.26,North,0,0.0,0.0,70,0.00,CLR,SCT,0.00,WeatherDisplay:10.37,2013-09-27 11:29:00,
2013-09-27 07:34:00,76.6,65.7,30.26,North,0,0.0,0.0,69,0.00,CLR,SCT,0.00,WeatherDisplay:10.37,2013-09-27 11:34:00,
2013-09-27 07:40:00,76.6,65.7,30.26,North,0,0.0,0.0,69,0.00,CLR,SCT,0.00,WeatherDisplay:10.37,2013-09-27 11:40:00,
2013-09-27 07:45:00,76.8,65.9,30.26,North,0,0.0,0.0,69,0.00,CLR,SCT,0.00,WeatherDisplay:10.37,2013-09-27 11:45:00,
2013-09-27 07:50:00,77.0,66.0,30.26,North,0,0.0,0.0,69,0.00,CLR,SCT,0.00,WeatherDisplay:10.37,2013-09-27 11:50:00,
2013-09-27 07:55:00,77.2,65.8,30.26,North,0,0.0,0.0,68,0.00,CLR,SCT,0.00,WeatherDisplay:10.37,2013-09-27 11:55:00,
2013-09-27 08:00:00,77.0,65.6,30.26,North,0,0.0,0.0,68,0.00,CLR,SCT,0.00,WeatherDisplay:10.37,2013-09-27 12:00:00,
2013-09-27 08:05:00,77.2,65.8,30.26,North,0,0.0,0.0,68,0.00,CLR,SCT,0.00,WeatherDisplay:10.37,2013-09-27 12:05:00,
2013-09-27 08:10:00,77.4,65.5,30.26,North,0,0.0,0.0,67,0.00,CLR,SCT,0.00,WeatherDisplay:10.37,2013-09-27 12:10:00,
2013-09-27 08:15:00,77.5,65.7,30.26,North,0,0.0,0.0,67,0.00,CLR,SCT,0.00,WeatherDisplay:10.37,2013-09-27 12:15:00,
2013-09-27 08:20:00,77.5,65.7,30.26,North,0,0.0,0.0,67,0.00,CLR,SCT,0.00,WeatherDisplay:10.37,2013-09-27 12:20:00,
2013-09-27 08:25:00,77.7,65.5,30.26,North,0,0.0,0.0,66,0.00,CLR,SCT,0.00,WeatherDisplay:10.37,2013-09-27 12:25:00,
2013-09-27 08:30:00,77.7,65.5,30.26,North,0,0.0,0.0,66,0.00,CLR,SCT,0.00,WeatherDisplay:10.37,2013-09-27 12:30:00,
2013-09-27 08:35:00,77.7,65.5,30.26,North,0,0.0,0.0,66,0.00,CLR,SCT,0.00,WeatherDisplay:10.37,2013-09-27 12:35:00,
2013-09-27 08:40:00,77.9,65.6,30.26,North,0,0.0,0.0,66,0.00,CLR,SCT,0.00,WeatherDisplay:10.37,2013-09-27 12:40:00,
2013-09-27 08:45:00,78.1,65.4,30.26,North,0,0.0,0.0,65,0.00,CLR,SCT,0.00,WeatherDisplay:10.37,2013-09-27 12:45:00,
2013-09-27 08:50:00,78.1,65.4,30.26,North,0,0.0,0.0,65,0.00,CLR,SCT,0.00,WeatherDisplay:10.37,2013-09-27 12:50:00,
2013-09-27 08:55:00,78.1,65.4,30.26,North,0,0.0,0.0,65,0.00,CLR,SCT,0.00,WeatherDisplay:10.37,2013-09-27 12:55:00,
2013-09-27 09:00:00,78.4,65.2,30.26,North,0,0.0,0.0,64,0.00,CLR,SCT,0.00,WeatherDisplay:10.37,2013-09-27 13:00:00,
2013-09-27 09:05:00,78.6,65.4,30.26,North,0,0.0,0.0,64,0.00,CLR,SCT,0.00,WeatherDisplay:10.37,2013-09-27 13:05:00,
2013-09-27 09:10:00,78.6,65.0,30.26,North,0,0.0,0.0,63,0.00,CLR,SCT,0.00,WeatherDisplay:10.37,2013-09-27 13:10:00,
2013-09-27 09:15:00,79.0,64.4,30.26,North,0,0.0,0.0,61,0.00,CLR,SCT,0.00,WeatherDisplay:10.37,2013-09-27 13:15:00,
2013-09-27 09:20:00,79.2,64.1,30.26,North,0,0.0,0.0,60,0.00,CLR,SCT,0.00,WeatherDisplay:10.37,2013-09-27 13:20:00,
2013-09-27 09:25:00,79.3,64.2,30.26,North,0,0.0,0.0,60,0.00,CLR,SCT,0.00,WeatherDisplay:10.37,2013-09-27 13:25:00,
2013-09-27 09:30:00,79.3,64.2,30.26,North,0,0.0,0.0,60,0.00,CLR,SCT,0.00,WeatherDisplay:10.37,2013-09-27 13:30:00,
2013-09-27 09:35:00,79.7,64.6,30.26,North,0,0.0,0.0,60,0.00,CLR,SCT,0.00,WeatherDisplay:10.37,2013-09-27 13:35:00,
2013-09-27 09:40:00,79.9,64.3,30.26,North,0,0.0,0.0,59,0.00,CLR,SCT,0.00,WeatherDisplay:10.37,2013-09-27 13:40:00,
2013-09-27 09:45:00,80.1,64.0,30.26,North,0,0.0,0.0,58,0.00,CLR,SCT,0.00,WeatherDisplay:10.37,2013-09-27 13:45:00,
2013-09-27 09:50:00,80.4,64.3,30.26,North,0,0.0,0.0,58,0.00,CLR,SCT,0.00,WeatherDisplay:10.37,2013-09-27 13:50:00,
2013-09-27 09:55:00,80.6,63.5,30.26,North,0,0.0,0.0,56,0.00,CLR,SCT,0.00,WeatherDisplay:10.37,2013-09-27 13:55:00,
2013-09-27 10:00:00,81.0,63.3,30.26,North,0,0.0,0.0,55,0.00,CLR,SCT,0.00,WeatherDisplay:10.37,2013-09-27 14:00:00,
2013-09-27 10:05:00,81.0,61.7,30.26,North,0,0.0,0.0,52,0.00,CLR,SCT,0.00,WeatherDisplay:10.37,2013-09-27 14:05:00,
2013-09-27 10:10:00,81.3,62.0,30.26,North,0,0.0,0.0,52,0.00,CLR,SCT,0.00,WeatherDisplay:10.37,2013-09-27 14:10:00,
2013-09-27 10:15:00,81.5,61.6,30.26,North,0,0.0,0.0,51,0.00,CLR,SCT,0.00,WeatherDisplay:10.37,2013-09-27 14:15:00,
2013-09-27 10:20:00,81.7,61.2,30.26,North,0,0.0,0.0,50,0.00,CLR,SCT,0.00,WeatherDisplay:10.37,2013-09-27 14:20:00,
2013-09-27 10:25:00,81.9,61.4,30.26,North,0,0.0,0.0,50,0.00,CLR,SCT,0.00,WeatherDisplay:10.37,2013-09-27 14:25:00,
2013-09-27 10:30:00,82.0,61.0,30.26,North,0,0.0,0.0,49,0.00,CLR,SCT,0.00,WeatherDisplay:10.37,2013-09-27 14:30:00,
2013-09-27 10:35:00,82.2,60.0,30.26,North,0,0.0,0.0,47,0.00,CLR,SCT,0.00,WeatherDisplay:10.37,2013-09-27 14:35:00,
2013-09-27 10:40:00,82.4,60.1,30.26,North,0,0.0,0.0,47,0.00,CLR,SCT,0.00,WeatherDisplay:10.37,2013-09-27 14:40:00,
2013-09-27 10:45:00,82.6,59.7,30.26,North,0,0.0,0.0,46,0.00,CLR,SCT,0.00,WeatherDisplay:10.37,2013-09-27 14:45:00,
2013-09-27 10:50:00,82.6,59.7,30.26,North,0,0.0,0.0,46,0.00,CLR,SCT,0.00,WeatherDisplay:10.37,2013-09-27 14:50:00,
2013-09-27 10:55:00,82.9,59.4,30.26,North,0,0.0,0.0,45,0.00,CLR,SCT,0.00,WeatherDisplay:10.37,2013-09-27 14:55:00,
2013-09-27 11:00:00,83.1,58.3,30.26,North,0,0.0,0.0,43,0.00,CLR,SCT,0.00,WeatherDisplay:10.37,2013-09-27 15:00:00,
2013-09-27 11:05:00,83.3,59.1,30.26,North,0,0.0,0.0,44,0.00,CLR,SCT,0.00,WeatherDisplay:10.37,2013-09-27 15:05:00,
2013-09-27 11:10:00,83.5,59.3,30.26,North,0,0.0,0.0,44,0.00,CLR,SCT,0.00,WeatherDisplay:10.37,2013-09-27 15:10:00,
2013-09-27 11:15:00,83.5,58.6,30.26,North,0,0.0,0.0,43,0.00,CLR,SCT,0.00,WeatherDisplay:10.37,2013-09-27 15:15:00,
2013-09-27 11:20:00,83.8,58.3,30.26,North,0,0.0,0.0,42,0.00,CLR,SCT,0.00,WeatherDisplay:10.37,2013-09-27 15:20:00,
2013-09-27 11:25:00,83.8,56.9,30.26,North,0,0.0,0.0,40,0.00,CLR,SCT,0.00,WeatherDisplay:10.37,2013-09-27 15:25:00,
2013-09-27 11:30:00,84.2,57.9,30.26,North,0,0.0,0.0,41,0.00,CLR,SCT,0.00,WeatherDisplay:10.37,2013-09-27 15:30:00,
2013-09-27 11:35:00,84.4,58.1,30.26,North,0,0.0,0.0,41,0.00,CLR,SCT,0.00,WeatherDisplay:10.37,2013-09-27 15:35:00,
2013-09-27 11:40:00,84.2,57.9,30.26,North,0,0.0,0.0,41,0.00,CLR,SCT,0.00,WeatherDisplay:10.37,2013-09-27 15:40:00,
2013-09-27 11:45:00,84.7,57.7,30.26,North,0,0.0,0.0,40,0.00,CLR,SCT,0.00,WeatherDisplay:10.37,2013-09-27 15:45:00,
2013-09-27 11:50:00,84.9,57.9,30.26,North,0,0.0,0.0,40,0.00,CLR,SCT,0.00,WeatherDisplay:10.37,2013-09-27 15:50:00,
2013-09-27 11:55:00,85.1,56.6,30.26,North,0,0.0,0.0,38,0.00,CLR,SCT,0.00,WeatherDisplay:10.37,2013-09-27 15:55:00,
2013-09-27 12:00:00,85.1,57.4,30.26,North,0,0.0,0.0,39,0.00,CLR,SCT,0.00,WeatherDisplay:10.37,2013-09-27 16:00:00,
2013-09-27 12:05:00,85.1,58.1,30.26,North,0,0.0,0.0,40,0.00,CLR,SCT,0.00,WeatherDisplay:10.37,2013-09-27 16:05:00,
2013-09-27 12:10:00,85.1,57.4,30.26,North,0,0.0,0.0,39,0.00,CLR,SCT,0.00,WeatherDisplay:10.37,2013-09-27 16:10:00,
2013-09-27 12:15:00,85.6,56.4,30.26,North,0,0.0,0.0,37,0.00,CLR,SCT,0.00,WeatherDisplay:10.37,2013-09-27 16:15:00,
2013-09-27 12:20:00,85.8,57.3,30.26,North,0,0.0,0.0,38,0.00,CLR,SCT,0.00,WeatherDisplay:10.37,2013-09-27 16:20:00,
2013-09-27 12:25:00,85.8,56.5,30.26,North,0,0.0,0.0,37,0.00,CLR,SCT,0.00,WeatherDisplay:10.37,2013-09-27 16:25:00,
2013-09-27 12:30:00,85.8,57.3,30.26,North,0,0.0,0.0,38,0.00,CLR,SCT,0.00,WeatherDisplay:10.37,2013-09-27 16:30:00,
2013-09-27 12:36:00,86.0,57.4,30.26,North,0,0.0,0.0,38,0.00,CLR,SCT,0.00,WeatherDisplay:10.37,2013-09-27 16:36:00,
2013-09-27 12:41:00,86.2,54.5,30.26,North,0,0.0,0.0,34,0.00,CLR,SCT,0.00,WeatherDisplay:10.37,2013-09-27 16:41:00,
2013-09-27 12:46:00,86.4,56.3,30.26,North,0,0.0,0.0,36,0.00,CLR,SCT,0.00,WeatherDisplay:10.37,2013-09-27 16:46:00,
2013-09-27 12:51:00,86.0,55.9,30.26,North,0,0.0,0.0,36,0.00,CLR,SCT,0.00,WeatherDisplay:10.37,2013-09-27 16:51:00,
2013-09-27 12:56:00,86.5,56.4,30.26,North,0,0.0,0.0,36,0.00,CLR,SCT,0.00,WeatherDisplay:10.37,2013-09-27 16:56:00,
2013-09-27 13:01:00,86.9,54.3,30.26,North,0,0.0,0.0,33,0.00,CLR,SCT,0.00,WeatherDisplay:10.37,2013-09-27 17:01:00,
2013-09-27 13:06:00,87.3,55.5,30.26,North,0,0.0,0.0,34,0.00,CLR,SCT,0.00,WeatherDisplay:10.37,2013-09-27 17:06:00,
2013-09-27 13:11:00,87.1,56.1,30.26,North,0,0.0,0.0,35,0.00,CLR,SCT,0.00,WeatherDisplay:10.37,2013-09-27 17:11:00,
2013-09-27 13:16:00,87.4,56.4,30.26,North,0,0.0,0.0,35,0.00,CLR,SCT,0.00,WeatherDisplay:10.37,2013-09-27 17:16:00,
2013-09-27 13:21:00,86.7,55.8,30.26,North,0,0.0,0.0,35,0.00,CLR,SCT,0.00,WeatherDisplay:10.37,2013-09-27 17:21:00,
2013-09-27 13:26:00,86.5,55.6,30.26,North,0,0.0,0.0,35,0.00,CLR,SCT,0.00,WeatherDisplay:10.37,2013-09-27 17:26:00,
2013-09-27 13:31:00,87.3,55.5,30.26,North,0,0.0,0.0,34,0.00,CLR,SCT,0.00,WeatherDisplay:10.37,2013-09-27 17:31:00,
2013-09-27 13:36:00,86.7,55.8,30.26,North,0,0.0,0.0,35,0.00,CLR,SCT,0.00,WeatherDisplay:10.37,2013-09-27 17:36:00,
2013-09-27 13:41:00,86.5,56.4,30.26,North,0,0.0,0.0,36,0.00,CLR,SCT,0.00,WeatherDisplay:10.37,2013-09-27 17:41:00,
2013-09-27 13:46:00,87.1,56.1,30.26,North,0,0.0,0.0,35,0.00,CLR,SCT,0.00,WeatherDisplay:10.37,2013-09-27 17:46:00,
2013-09-27 13:51:00,87.1,54.5,30.26,North,0,0.0,0.0,33,0.00,CLR,SCT,0.00,WeatherDisplay:10.37,2013-09-27 17:51:00,
2013-09-27 13:56:00,86.9,55.2,30.26,North,0,0.0,0.0,34,0.00,CLR,SCT,0.00,WeatherDisplay:10.37,2013-09-27 17:56:00,
2013-09-27 14:01:00,87.8,56.7,30.26,North,0,0.0,0.0,35,0.00,CLR,SCT,0.00,WeatherDisplay:10.37,2013-09-27 18:01:00,
2013-09-27 14:06:00,87.6,55.0,30.26,North,0,0.0,0.0,33,0.00,CLR,SCT,0.00,WeatherDisplay:10.37,2013-09-27 18:06:00,
2013-09-27 14:11:00,87.3,54.6,30.26,North,0,0.0,0.0,33,0.00,CLR,SCT,0.00,WeatherDisplay:10.37,2013-09-27 18:11:00,
2013-09-27 14:16:00,87.8,55.1,30.26,North,0,0.0,0.0,33,0.00,CLR,SCT,0.00,WeatherDisplay:10.37,2013-09-27 18:16:00,
2013-09-27 14:21:00,87.6,55.0,30.26,North,0,0.0,0.0,33,0.00,CLR,SCT,0.00,WeatherDisplay:10.37,2013-09-27 18:21:00,
2013-09-27 14:26:00,87.6,55.0,30.26,North,0,0.0,0.0,33,0.00,CLR,SCT,0.00,WeatherDisplay:10.37,2013-09-27 18:26:00,
2013-09-27 14:31:00,88.2,55.4,30.26,North,0,0.0,0.0,33,0.00,CLR,SCT,0.00,WeatherDisplay:10.37,2013-09-27 18:31:00,
2013-09-27 14:36:00,88.3,54.7,30.26,North,0,0.0,0.0,32,0.00,CLR,SCT,0.00,WeatherDisplay:10.37,2013-09-27 18:36:00,
2013-09-27 14:41:00,88.2,54.6,30.26,North,0,0.0,0.0,32,0.00,CLR,SCT,0.00,WeatherDisplay:10.37,2013-09-27 18:41:00,
2013-09-27 14:46:00,87.8,53.4,30.26,North,0,0.0,0.0,31,0.00,CLR,SCT,0.00,WeatherDisplay:10.37,2013-09-27 18:46:00,
2013-09-27 14:51:00,88.3,54.7,30.26,North,0,0.0,0.0,32,0.00,CLR,SCT,0.00,WeatherDisplay:10.37,2013-09-27 18:51:00,
2013-09-27 14:56:00,88.3,56.4,30.26,North,0,0.0,0.0,34,0.00,CLR,SCT,0.00,WeatherDisplay:10.37,2013-09-27 18:56:00,
2013-09-27 15:01:00,88.0,58.4,30.26,North,0,0.0,0.0,37,0.00,CLR,SCT,0.00,WeatherDisplay:10.37,2013-09-27 19:01:00,
2013-09-27 15:06:00,87.8,59.0,30.26,North,0,0.0,0.0,38,0.00,CLR,SCT,0.00,WeatherDisplay:10.37,2013-09-27 19:06:00,
2013-09-27 15:11:00,87.8,59.0,30.26,North,0,0.0,0.0,38,0.00,CLR,SCT,0.00,WeatherDisplay:10.37,2013-09-27 19:11:00,
2013-09-27 15:16:00,87.4,59.4,30.26,North,0,0.0,0.0,39,0.00,CLR,SCT,0.00,WeatherDisplay:10.37,2013-09-27 19:16:00,
2013-09-27 15:22:00,87.3,59.3,30.26,North,0,0.0,0.0,39,0.00,CLR,SCT,0.00,WeatherDisplay:10.37,2013-09-27 19:22:00,
2013-09-27 15:27:00,86.9,59.7,30.26,North,0,0.0,0.0,40,0.00,CLR,SCT,0.00,WeatherDisplay:10.37,2013-09-27 19:27:00,
2013-09-27 15:32:00,86.9,59.7,30.26,North,0,0.0,0.0,40,0.00,CLR,SCT,0.00,WeatherDisplay:10.37,2013-09-27 19:32:00,
2013-09-27 15:37:00,86.9,59.0,30.26,North,0,0.0,0.0,39,0.00,CLR,SCT,0.00,WeatherDisplay:10.37,2013-09-27 19:37:00,
2013-09-27 15:42:00,82.0,69.6,30.26,North,0,0.0,0.0,66,0.00,CLR,SCT,0.00,WeatherDisplay:10.37,2013-09-27 19:42:00,
2013-09-27 15:47:00,81.5,71.2,30.26,North,0,0.0,0.0,71,0.00,CLR,SCT,0.00,WeatherDisplay:10.37,2013-09-27 19:47:00,
2013-09-27 15:52:00,81.5,72.0,30.26,North,0,0.0,0.0,73,0.00,CLR,SCT,0.00,WeatherDisplay:10.37,2013-09-27 19:52:00,
2013-09-27 15:57:00,82.0,72.9,30.26,North,0,0.0,0.0,74,0.00,CLR,SCT,0.00,WeatherDisplay:10.37,2013-09-27 19:57:00,
2013-09-27 16:02:00,82.2,71.9,30.26,North,0,0.0,0.0,71,0.00,CLR,SCT,0.00,WeatherDisplay:10.37,2013-09-27 20:02:00,
2013-09-27 16:07:00,82.2,72.7,30.26,North,0,0.0,0.0,73,0.00,CLR,SCT,0.00,WeatherDisplay:10.37,2013-09-27 20:07:00,
2013-09-27 16:12:00,82.9,73.8,30.26,North,0,0.0,0.0,74,0.00,CLR,SCT,0.00,WeatherDisplay:10.37,2013-09-27 20:12:00,
2013-09-27 16:17:00,83.1,74.0,30.26,North,0,0.0,0.0,74,0.00,CLR,SCT,0.00,WeatherDisplay:10.37,2013-09-27 20:17:00,
2013-09-27 16:22:00,82.9,73.8,30.26,North,0,0.0,0.0,74,0.00,CLR,SCT,0.00,WeatherDisplay:10.37,2013-09-27 20:22:00,
2013-09-27 16:27:00,83.1,73.6,30.26,North,0,0.0,0.0,73,0.00,CLR,SCT,0.00,WeatherDisplay:10.37,2013-09-27 20:27:00,
2013-09-27 16:32:00,83.3,74.1,30.26,North,0,0.0,0.0,74,0.00,CLR,SCT,0.00,WeatherDisplay:10.37,2013-09-27 20:32:00,
2013-09-27 16:37:00,83.5,74.7,30.26,North,0,0.0,0.0,75,0.00,CLR,SCT,0.00,WeatherDisplay:10.37,2013-09-27 20:37:00,
2013-09-27 16:42:00,83.8,75.1,30.26,North,0,0.0,0.0,75,0.00,CLR,SCT,0.00,WeatherDisplay:10.37,2013-09-27 20:42:00,
2013-09-27 16:47:00,83.8,75.1,30.26,North,0,0.0,0.0,75,0.00,CLR,SCT,0.00,WeatherDisplay:10.37,2013-09-27 20:47:00,
2013-09-27 16:52:00,84.2,73.3,30.26,North,0,0.0,0.0,70,0.00,CLR,SCT,0.00,WeatherDisplay:10.37,2013-09-27 20:52:00,
2013-09-27 16:57:00,84.6,72.8,30.26,North,0,0.0,0.0,68,0.00,CLR,SCT,0.00,WeatherDisplay:10.37,2013-09-27 20:57:00,
2013-09-27 17:02:00,84.4,68.5,30.26,North,0,0.0,0.0,59,0.00,CLR,SCT,0.00,WeatherDisplay:10.37,2013-09-27 21:02:00,
2013-09-27 17:07:00,84.4,70.4,30.26,North,0,0.0,0.0,63,0.00,CLR,SCT,0.00,WeatherDisplay:10.37,2013-09-27 21:07:00,
2013-09-27 17:12:00,84.6,69.1,30.26,North,0,0.0,0.0,60,0.00,CLR,SCT,0.00,WeatherDisplay:10.37,2013-09-27 21:12:00,
2013-09-27 17:17:00,84.7,68.3,30.26,North,0,0.0,0.0,58,0.00,CLR,SCT,0.00,WeatherDisplay:10.37,2013-09-27 21:17:00,
2013-09-27 17:22:00,85.1,70.1,30.26,North,0,0.0,0.0,61,0.00,CLR,SCT,0.00,WeatherDisplay:10.37,2013-09-27 21:22:00,
2013-09-27 17:27:00,84.9,68.5,30.26,North,0,0.0,0.0,58,0.00,CLR,SCT,0.00,WeatherDisplay:10.37,2013-09-27 21:27:00,
2013-09-27 17:32:00,84.9,66.4,30.26,North,0,0.0,0.0,54,0.00,CLR,SCT,0.00,WeatherDisplay:10.37,2013-09-27 21:32:00,
2013-09-27 17:37:00,84.9,65.3,30.26,North,0,0.0,0.0,52,0.00,CLR,SCT,0.00,WeatherDisplay:10.37,2013-09-27 21:37:00,
2013-09-27 17:42:00,84.9,64.2,30.26,North,0,0.0,0.0,50,0.00,CLR,SCT,0.00,WeatherDisplay:10.37,2013-09-27 21:42:00,
2013-09-27 17:47:00,84.9,66.4,30.26,North,0,0.0,0.0,54,0.00,CLR,SCT,0.00,WeatherDisplay:10.37,2013-09-27 21:47:00,
2013-09-27 17:52:00,84.7,64.0,30.26,North,0,0.0,0.0,50,0.00,CLR,SCT,0.00,WeatherDisplay:10.37,2013-09-27 21:52:00,
2013-09-27 17:57:00,84.6,65.0,30.26,North,0,0.0,0.0,52,0.00,CLR,SCT,0.00,WeatherDisplay:10.37,2013-09-27 21:57:00,
2013-09-27 18:02:00,84.4,63.1,30.26,North,0,0.0,0.0,49,0.00,CLR,SCT,0.00,WeatherDisplay:10.37,2013-09-27 22:02:00,
2013-09-27 18:07:00,84.0,60.4,30.26,North,0,0.0,0.0,45,0.00,CLR,SCT,0.00,WeatherDisplay:10.37,2013-09-27 22:07:00,
2013-09-27 18:12:00,84.0,60.4,30.26,North,0,0.0,0.0,45,0.00,CLR,SCT,0.00,WeatherDisplay:10.37,2013-09-27 22:12:00,
2013-09-27 18:17:00,84.0,58.5,30.26,North,0,0.0,0.0,42,0.00,CLR,SCT,0.00,WeatherDisplay:10.37,2013-09-27 22:17:00,
2013-09-27 18:22:00,83.7,57.5,30.26,North,0,0.0,0.0,41,0.00,CLR,SCT,0.00,WeatherDisplay:10.37,2013-09-27 22:22:00,
2013-09-27 18:27:00,83.5,58.0,30.26,North,0,0.0,0.0,42,0.00,CLR,SCT,0.00,WeatherDisplay:10.37,2013-09-27 22:27:00,
2013-09-27 18:32:00,83.3,57.8,30.26,North,0,0.0,0.0,42,0.00,CLR,SCT,0.00,WeatherDisplay:10.37,2013-09-27 22:32:00,
2013-09-27 18:37:00,83.1,58.3,30.26,North,0,0.0,0.0,43,0.00,CLR,SCT,0.00,WeatherDisplay:10.37,2013-09-27 22:37:00,
2013-09-27 18:42:00,82.9,57.5,30.26,North,0,0.0,0.0,42,0.00,CLR,SCT,0.00,WeatherDisplay:10.37,2013-09-27 22:42:00,
2013-09-27 18:47:00,82.8,58.0,30.26,North,0,0.0,0.0,43,0.00,CLR,SCT,0.00,WeatherDisplay:10.37,2013-09-27 22:47:00,
2013-09-27 18:52:00,82.8,58.6,30.26,North,0,0.0,0.0,44,0.00,CLR,SCT,0.00,WeatherDisplay:10.37,2013-09-27 22:52:00,
2013-09-27 18:57:00,82.8,58.0,30.26,North,0,0.0,0.0,43,0.00,CLR,SCT,0.00,WeatherDisplay:10.37,2013-09-27 22:57:00,
2013-09-27 19:02:00,82.6,57.8,30.26,North,0,0.0,0.0,43,0.00,CLR,SCT,0.00,WeatherDisplay:10.37,2013-09-27 23:02:00,
2013-09-27 19:07:00,82.6,59.1,30.26,North,0,0.0,0.0,45,0.00,CLR,SCT,0.00,WeatherDisplay:10.37,2013-09-27 23:07:00,
2013-09-27 19:12:00,82.4,59.5,30.26,North,0,0.0,0.0,46,0.00,CLR,SCT,0.00,WeatherDisplay:10.37,2013-09-27 23:12:00,
2013-09-27 19:17:00,82.4,59.5,30.26,North,0,0.0,0.0,46,0.00,CLR,SCT,0.00,WeatherDisplay:10.37,2013-09-27 23:17:00,
2013-09-27 19:22:00,82.2,59.4,30.26,North,0,0.0,0.0,46,0.00,CLR,SCT,0.00,WeatherDisplay:10.37,2013-09-27 23:22:00,
2013-09-27 19:27:00,82.2,60.6,30.26,North,0,0.0,0.0,48,0.00,CLR,SCT,0.00,WeatherDisplay:10.37,2013-09-27 23:27:00,
2013-09-27 19:32:00,82.2,60.0,30.26,North,0,0.0,0.0,47,0.00,CLR,SCT,0.00,WeatherDisplay:10.37,2013-09-27 23:32:00,
2013-09-27 19:37:00,82.0,59.2,30.26,North,0,0.0,0.0,46,0.00,CLR,SCT,0.00,WeatherDisplay:10.37,2013-09-27 23:37:00,
2013-09-27 19:42:00,82.0,59.8,30.26,North,0,0.0,0.0,47,0.00,CLR,SCT,0.00,WeatherDisplay:10.37,2013-09-27 23:42:00,
2013-09-27 19:48:00,82.2,60.6,30.26,North,0,0.0,0.0,48,0.00,CLR,SCT,0.00,WeatherDisplay:10.37,2013-09-27 23:48:00,
2013-09-27 19:53:00,82.0,60.4,30.26,North,0,0.0,0.0,48,0.00,CLR,SCT,0.00,WeatherDisplay:10.37,2013-09-27 23:53:00,
2013-09-27 19:58:00,82.0,59.8,30.26,North,0,0.0,0.0,47,0.00,CLR,SCT,0.00,WeatherDisplay:10.37,2013-09-27 23:58:00,
2013-09-27 20:03:00,82.0,61.0,30.26,North,0,0.0,0.0,49,0.00,CLR,SCT,0.00,WeatherDisplay:10.37,2013-09-28 00:03:00,
2013-09-27 20:08:00,82.0,61.0,30.26,North,0,0.0,0.0,49,0.00,CLR,SCT,0.00,WeatherDisplay:10.37,2013-09-28 00:08:00,
2013-09-27 20:13:00,81.9,61.4,30.26,North,0,0.0,0.0,50,0.00,CLR,SCT,0.00,WeatherDisplay:10.37,2013-09-28 00:13:00,
2013-09-27 20:18:00,81.9,60.8,30.26,North,0,0.0,0.0,49,0.00,CLR,SCT,0.00,WeatherDisplay:10.37,2013-09-28 00:18:00,
2013-09-27 20:23:00,81.9,60.8,30.26,North,0,0.0,0.0,49,0.00,CLR,SCT,0.00,WeatherDisplay:10.37,2013-09-28 00:23:00,
2013-09-27 20:28:00,81.9,60.8,30.26,North,0,0.0,0.0,49,0.00,CLR,SCT,0.00,WeatherDisplay:10.37,2013-09-28 00:28:00,
2013-09-27 20:33:00,81.9,60.8,30.26,North,0,0.0,0.0,49,0.00,CLR,SCT,0.00,WeatherDisplay:10.37,2013-09-28 00:33:00,
2013-09-27 20:38:00,81.9,60.2,30.26,North,0,0.0,0.0,48,0.00,CLR,SCT,0.00,WeatherDisplay:10.37,2013-09-28 00:38:00,
2013-09-27 20:43:00,81.9,59.7,30.26,North,0,0.0,0.0,47,0.00,CLR,SCT,0.00,WeatherDisplay:10.37,2013-09-28 00:43:00,
2013-09-27 20:48:00,81.9,60.2,30.26,North,0,0.0,0.0,48,0.00,CLR,SCT,0.00,WeatherDisplay:10.37,2013-09-28 00:48:00,
2013-09-27 20:53:00,81.9,60.8,30.26,North,0,0.0,0.0,49,0.00,CLR,SCT,0.00,WeatherDisplay:10.37,2013-09-28 00:53:00,
2013-09-27 20:58:00,81.9,60.2,30.26,North,0,0.0,0.0,48,0.00,CLR,SCT,0.00,WeatherDisplay:10.37,2013-09-28 00:58:00,
2013-09-27 21:03:00,81.7,59.5,30.26,North,0,0.0,0.0,47,0.00,CLR,SCT,0.00,WeatherDisplay:10.37,2013-09-28 01:03:00,
2013-09-27 21:08:00,81.7,60.1,30.26,North,0,0.0,0.0,48,0.00,CLR,SCT,0.00,WeatherDisplay:10.37,2013-09-28 01:08:00,
2013-09-27 21:13:00,81.7,60.7,30.26,North,0,0.0,0.0,49,0.00,CLR,SCT,0.00,WeatherDisplay:10.37,2013-09-28 01:13:00,
2013-09-27 21:18:00,81.7,61.2,30.26,North,0,0.0,0.0,50,0.00,CLR,SCT,0.00,WeatherDisplay:10.37,2013-09-28 01:18:00,
2013-09-27 21:23:00,81.5,60.5,30.26,North,0,0.0,0.0,49,0.00,CLR,SCT,0.00,WeatherDisplay:10.37,2013-09-28 01:23:00,
2013-09-27 21:28:00,81.5,61.1,30.26,North,0,0.0,0.0,50,0.00,CLR,SCT,0.00,WeatherDisplay:10.37,2013-09-28 01:28:00,
2013-09-27 21:33:00,81.5,61.1,30.26,North,0,0.0,0.0,50,0.00,CLR,SCT,0.00,WeatherDisplay:10.37,2013-09-28 01:33:00,
2013-09-27 21:38:00,81.5,61.1,30.26,North,0,0.0,0.0,50,0.00,CLR,SCT,0.00,WeatherDisplay:10.37,2013-09-28 01:38:00,
2013-09-27 21:43:00,81.3,60.9,30.26,North,0,0.0,0.0,50,0.00,CLR,SCT,0.00,WeatherDisplay:10.37,2013-09-28 01:43:00,
2013-09-27 21:48:00,81.3,60.9,30.26,North,0,0.0,0.0,50,0.00,CLR,SCT,0.00,WeatherDisplay:10.37,2013-09-28 01:48:00,
2013-09-27 21:53:00,81.3,60.9,30.26,North,0,0.0,0.0,50,0.00,CLR,SCT,0.00,WeatherDisplay:10.37,2013-09-28 01:53:00,
2013-09-27 21:58:00,81.3,60.9,30.26,North,0,0.0,0.0,50,0.00,CLR,SCT,0.00,WeatherDisplay:10.37,2013-09-28 01:58:00,
2013-09-27 22:03:00,81.1,60.7,30.26,North,0,0.0,0.0,50,0.00,CLR,SCT,0.00,WeatherDisplay:10.37,2013-09-28 02:03:00,
2013-09-27 22:08:00,81.1,60.7,30.26,North,0,0.0,0.0,50,0.00,CLR,SCT,0.00,WeatherDisplay:10.37,2013-09-28 02:08:00,
2013-09-27 22:13:00,81.1,60.7,30.26,North,0,0.0,0.0,50,0.00,CLR,SCT,0.00,WeatherDisplay:10.37,2013-09-28 02:13:00,
2013-09-27 22:18:00,81.1,60.7,30.26,North,0,0.0,0.0,50,0.00,CLR,SCT,0.00,WeatherDisplay:10.37,2013-09-28 02:18:00,
2013-09-27 22:23:00,81.1,60.7,30.26,North,0,0.0,0.0,50,0.00,CLR,SCT,0.00,WeatherDisplay:10.37,2013-09-28 02:23:00,
2013-09-27 22:28:00,81.1,60.7,30.26,North,0,0.0,0.0,50,0.00,CLR,SCT,0.00,WeatherDisplay:10.37,2013-09-28 02:28:00,
2013-09-27 22:33:00,81.1,60.2,30.26,North,0,0.0,0.0,49,0.00,CLR,SCT,0.00,WeatherDisplay:10.37,2013-09-28 02:33:00,
2013-09-27 22:38:00,81.1,60.2,30.26,North,0,0.0,0.0,49,0.00,CLR,SCT,0.00,WeatherDisplay:10.37,2013-09-28 02:38:00,
2013-09-27 22:43:00,81.1,60.2,30.26,North,0,0.0,0.0,49,0.00,CLR,SCT,0.00,WeatherDisplay:10.37,2013-09-28 02:43:00,
2013-09-27 22:48:00,81.1,60.2,30.26,North,0,0.0,0.0,49,0.00,CLR,SCT,0.00,WeatherDisplay:10.37,2013-09-28 02:48:00,
2013-09-27 22:53:00,81.1,60.2,30.26,North,0,0.0,0.0,49,0.00,CLR,SCT,0.00,WeatherDisplay:10.37,2013-09-28 02:53:00,
2013-09-27 22:58:00,81.1,60.7,30.26,North,0,0.0,0.0,50,0.00,CLR,SCT,0.00,WeatherDisplay:10.37,2013-09-28 02:58:00,
2013-09-27 23:03:00,81.1,60.2,30.26,North,0,0.0,0.0,49,0.00,CLR,SCT,0.00,WeatherDisplay:10.37,2013-09-28 03:03:00,
2013-09-27 23:08:00,81.0,60.0,30.26,North,0,0.0,0.0,49,0.00,CLR,SCT,0.00,WeatherDisplay:10.37,2013-09-28 03:08:00,
2013-09-27 23:13:00,81.0,60.0,30.26,North,0,0.0,0.0,49,0.00,CLR,SCT,0.00,WeatherDisplay:10.37,2013-09-28 03:13:00,
2013-09-27 23:18:00,80.8,59.8,30.26,North,0,0.0,0.0,49,0.00,CLR,SCT,0.00,WeatherDisplay:10.37,2013-09-28 03:18:00,
2013-09-27 23:23:00,80.8,60.4,30.26,North,0,0.0,0.0,50,0.00,CLR,SCT,0.00,WeatherDisplay:10.37,2013-09-28 03:23:00,
2013-09-27 23:28:00,80.6,60.2,30.26,North,0,0.0,0.0,50,0.00,CLR,SCT,0.00,WeatherDisplay:10.37,2013-09-28 03:28:00,
2013-09-27 23:33:00,80.6,59.7,30.26,North,0,0.0,0.0,49,0.00,CLR,SCT,0.00,WeatherDisplay:10.37,2013-09-28 03:33:00,
2013-09-27 23:38:00,80.6,60.2,30.26,North,0,0.0,0.0,50,0.00,CLR,SCT,0.00,WeatherDisplay:10.37,2013-09-28 03:38:00,
2013-09-27 23:43:00,80.6,60.2,30.26,North,0,0.0,0.0,50,0.00,CLR,SCT,0.00,WeatherDisplay:10.37,2013-09-28 03:43:00,
2013-09-27 23:48:00,80.6,60.2,30.26,North,0,0.0,0.0,50,0.00,CLR,SCT,0.00,WeatherDisplay:10.37,2013-09-28 03:48:00,
2013-09-27 23:53:00,80.6,60.2,30.26,North,0,0.0,0.0,50,0.00,CLR,SCT,0.00,WeatherDisplay:10.37,2013-09-28 03:53:00,
2013-09-27 23:58:00,80.6,60.2,30.26,North,0,0.0,0.0,50,0.00,CLR,SCT,0.00,WeatherDisplay:10.37,2013-09-28 03:58:00,